Regional Weather Roundup
Issued by NWS

Home | Current Version | Previous Version | Graphics & Text | Print | Product List | Glossary On
Versions: 1 2 3 4 5 6 7 8 9 10 11 12 13 14 15 16 17 18 19 20 21 22 23 24 25 26 27 28 29 30 31 32 33 34 35 36 37 38 39 40 41 42 43 44 45 46 47 48 49 50
000
ASUS43 KLMK 280810
RWRKY
KENTUCKY REGIONAL WEATHER ROUNDUP
NATIONAL WEATHER SERVICE LOUISVILLE KY
400 AM EDT MON JUL 28 2014

NOTE "FAIR" INDICATES FEW OR NO CLOUDS BELOW 12,000 FEET
WITH NO SIGNIFICANT WEATHER AND/OR OBSTRUCTIONS TO VISIBILITY.

KYZ001>023-026-027-061>063-070>075-280900-
WESTERN AND SOUTH CENTRAL KENTUCKY

CITY           SKY/WX    TMP DP  RH WIND       PRES   REMARKS
PADUCAH        CLEAR     71  58  63 N6        29.97R
HENDERSON      CLEAR     64  57  77 W6        29.94S
OWENSBORO      CLEAR     66  59  78 W5        29.94S
HOPKINSVILLE   CLEAR     71  58  65 NW5       29.96R
BOWLING GREEN  CLEAR     71  58  63 W5        29.94R
GLASGOW        CLEAR     67  58  72 CALM      29.93S
$$

KYZ024-025-028>034-038-045-046-053-280900-
NORTH CENTRAL KENTUCKY

CITY           SKY/WX    TMP DP  RH WIND       PRES   REMARKS
LOUISVILLE/SDF CLEAR     69  59  70 W9        29.88S
LOUISVILLE/LOU CLEAR     69  58  67 W8        29.88S
FORT KNOX      CLEAR     63  59  88 W5        29.90S
$$

KYZ035>037-039>044-047>052-055>060-089>105-280900-
NORTHEAST KENTUCKY

CITY           SKY/WX    TMP DP  RH WIND       PRES   REMARKS
LEXINGTON      PTCLDY    67  59  75 W7        29.88S
COVINGTON      PTCLDY    64  58  80 W10       29.84R
FRANKFORT      CLEAR     66  59  78 W5        29.87R
$$

KYZ054-064>069-076>088-106>120-280900-
SOUTHEAST KENTUCKY

CITY           SKY/WX    TMP DP  RH WIND       PRES   REMARKS
JACKSON        CLEAR     65  63  93 VRB5      29.88S
LONDON         MOCLDY    69  63  81 CALM      29.91S
SOMERSET       PTCLDY    64  64 100 CALM      29.92S
MIDDLESBORO    FOG       67  67 100 CALM      29.92S VSB 1/2
MONTICELLO     SUNNY     67  65  93 CALM      29.94R
$$



USA.gov is the U.S. government's official web portal to all federal, state and local government web resources and services.